Hourly Weather Smugi

Today, 16 January, Saturday

Time Temperature Precipitation Wind Pressure Humidity
00:00 -7°C° 0.1 mm 3 mps 755 mmHg 95%
01:00 -8°C° 0 mm 4 mps 755 mmHg 95%
02:00 -7°C° 0.1 mm 4 mps 755 mmHg 95%
03:00 -7°C° 0.1 mm 4 mps 755 mmHg 95%
04:00 -7°C° 0.1 mm 4 mps 755 mmHg 95%
05:00 -7°C° 0.1 mm 4 mps 755 mmHg 94%
06:00 -7°C° 0.1 mm 4 mps 755 mmHg 94%
07:00 -7°C° 0 mm 5 mps 755 mmHg 94%
08:00 -7°C° 0.1 mm 5 mps 755 mmHg 94%
09:00 -7°C° 0.1 mm 5 mps 755 mmHg 93%
10:00 -8°C° 0.1 mm 5 mps 754 mmHg 93%
11:00 -7°C° 0.1 mm 5 mps 754 mmHg 91%
12:00 -8°C° 0.1 mm 6 mps 754 mmHg 90%
13:00 -8°C° 0 mm 6 mps 753 mmHg 89%
14:00 -8°C° 0.1 mm 6 mps 753 mmHg 90%
15:00 -8°C° 0.1 mm 6 mps 752 mmHg 92%
16:00 -8°C° 0.1 mm 6 mps 752 mmHg 94%
17:00 -8°C° 0.4 mm 6 mps 751 mmHg 94%
18:00 -8°C° 0.4 mm 7 mps 751 mmHg 94%
19:00 -8°C° 0.4 mm 7 mps 751 mmHg 94%
20:00 -8°C° 0.4 mm 7 mps 751 mmHg 94%
21:00 -8°C° 0.4 mm 7 mps 751 mmHg 94%
22:00 -8°C° 0.4 mm 7 mps 751 mmHg 94%
23:00 -10°C° 0.2 mm 6 mps 751 mmHg 92%

Tomorrow, 17 January, Sunday

Time Temperature Precipitation Wind Pressure Humidity
00:00 -12°C° 0.2 mm 5 mps 751 mmHg 90%
01:00 -14°C° 0.2 mm 4 mps 751 mmHg 89%
02:00 -15°C° 0 mm 4 mps 751 mmHg 90%
03:00 -15°C° 0 mm 3 mps 751 mmHg 92%
04:00 -17°C° 0 mm 3 mps 752 mmHg 93%
05:00 -16°C° 0 mm 2 mps 752 mmHg 94%
06:00 -17°C° 0 mm 2 mps 752 mmHg 94%
07:00 -18°C° 0 mm 2 mps 752 mmHg 94%
08:00 -15°C° 0 mm 1 mps 753 mmHg 93%
09:00 -15°C° 0 mm 1 mps 754 mmHg 91%
10:00 -14°C° 0 mm 1 mps 754 mmHg 90%
11:00 -14°C° 0 mm 1 mps 754 mmHg 88%
12:00 -13°C° 0 mm 1 mps 754 mmHg 87%
13:00 -12°C° 0 mm 1 mps 754 mmHg 86%
14:00 -13°C° 0 mm 1 mps 755 mmHg 88%
15:00 -14°C° 0 mm 1 mps 755 mmHg 91%
16:00 -14°C° 0 mm 1 mps 755 mmHg 93%
17:00 -15°C° 0 mm 1 mps 755 mmHg 93%
18:00 -15°C° 0 mm 0 mps 756 mmHg 93%
19:00 -15°C° 0 mm 0 mps 756 mmHg 93%
20:00 -15°C° 0 mm 0 mps 756 mmHg 93%
21:00 -15°C° 0 mm 0 mps 756 mmHg 93%
22:00 -15°C° 0 mm 0 mps 756 mmHg 92%
23:00 -15°C° 0 mm 0 mps 756 mmHg 92%

Day after tomorrow, 18 January, Monday

Time Temperature Precipitation Wind Pressure Humidity
00:00 -15°C° 0 mm 1 mps 757 mmHg 92%
01:00 -15°C° 0 mm 1 mps 757 mmHg 91%
02:00 -15°C° 0 mm 1 mps 756 mmHg 91%
03:00 -15°C° 0 mm 1 mps 756 mmHg 90%
04:00 -15°C° 0 mm 1 mps 756 mmHg 90%
05:00 -15°C° 0 mm 1 mps 756 mmHg 89%
06:00 -17°C° 0 mm 2 mps 756 mmHg 88%
07:00 -16°C° 0 mm 2 mps 756 mmHg 87%
08:00 -16°C° 0 mm 2 mps 756 mmHg 86%
09:00 -15°C° 0 mm 2 mps 756 mmHg 86%
10:00 -14°C° 0 mm 2 mps 756 mmHg 85%
11:00 -13°C° 0 mm 2 mps 755 mmHg 84%
12:00 -10°C° 0 mm 2 mps 755 mmHg 84%
13:00 -9°C° 0 mm 2 mps 755 mmHg 83%
14:00 -9°C° 0 mm 2 mps 755 mmHg 86%
15:00 -9°C° 0 mm 2 mps 754 mmHg 89%
16:00 -9°C° 0 mm 2 mps 754 mmHg 91%
17:00 -8°C° 0.3 mm 2 mps 754 mmHg 93%
18:00 -7°C° 0.3 mm 2 mps 754 mmHg 95%
19:00 -6°C° 0.3 mm 2 mps 754 mmHg 96%
20:00 -5°C° 0.2 mm 3 mps 754 mmHg 97%
21:00 -4°C° 0.2 mm 3 mps 754 mmHg 97%
22:00 -2°C° 0.2 mm 3 mps 753 mmHg 97%
23:00 -2°C° 0.5 mm 4 mps 753 mmHg 97%

19 January, Tuesday

Time Temperature Precipitation Wind Pressure Humidity
00:00 -2°C° 0.5 mm 4 mps 753 mmHg 97%
01:00 -2°C° 0.5 mm 5 mps 753 mmHg 97%
02:00 -2°C° 0.2 mm 5 mps 752 mmHg 97%
03:00 -2°C° 0.2 mm 5 mps 752 mmHg 97%
04:00 -2°C° 0.2 mm 5 mps 751 mmHg 97%
05:00 -2°C° 0.1 mm 5 mps 751 mmHg 97%
06:00 -2°C° 0.1 mm 4 mps 751 mmHg 97%
07:00 -2°C° 0.1 mm 4 mps 751 mmHg 96%
08:00 -2°C° 0 mm 4 mps 751 mmHg 94%
09:00 -2°C° 0 mm 4 mps 751 mmHg 92%
10:00 -2°C° 0 mm 4 mps 750 mmHg 90%
11:00 -2°C° 0 mm 4 mps 750 mmHg 89%
12:00 -2°C° 0 mm 5 mps 749 mmHg 89%
13:00 -1°C° 0 mm 5 mps 749 mmHg 88%
14:00 -1°C° 0.2 mm 5 mps 748 mmHg 91%
15:00 -2°C° 0.2 mm 5 mps 747 mmHg 94%
16:00 -2°C° 0.2 mm 5 mps 747 mmHg 97%
17:00 -2°C° 0.6 mm 5 mps 746 mmHg 97%
18:00 -2°C° 0.6 mm 5 mps 746 mmHg 98%
19:00 -2°C° 0.6 mm 5 mps 746 mmHg 98%
20:00 -2°C° 0.6 mm 6 mps 745 mmHg 98%
21:00 -2°C° 0.6 mm 6 mps 745 mmHg 98%
22:00 -1°C° 0.6 mm 6 mps 745 mmHg 99%
23:00 0°C° 0.5 mm 5 mps 745 mmHg 99%

20 January, Wednesday

Time Temperature Precipitation Wind Pressure Humidity
00:00 0°C° 0.5 mm 5 mps 745 mmHg 99%
01:00 0°C° 0.5 mm 5 mps 745 mmHg 98%
02:00 0°C° 0.3 mm 5 mps 745 mmHg 98%
03:00 0°C° 0.3 mm 5 mps 745 mmHg 98%
04:00 0°C° 0.3 mm 4 mps 745 mmHg 97%
05:00 0°C° 0.1 mm 4 mps 745 mmHg 96%
06:00 0°C° 0.1 mm 4 mps 745 mmHg 95%
07:00 0°C° 0.1 mm 4 mps 745 mmHg 93%
08:00 0°C° 0 mm 4 mps 745 mmHg 91%
09:00 0°C° 0 mm 5 mps 745 mmHg 89%
10:00 0°C° 0 mm 5 mps 745 mmHg 87%
11:00 +1°C° 0 mm 5 mps 745 mmHg 87%
12:00 +1°C° 0 mm 5 mps 745 mmHg 86%
13:00 +1°C° 0 mm 5 mps 745 mmHg 86%
14:00 +1°C° 0 mm 5 mps 745 mmHg 84%
15:00 +1°C° 0 mm 5 mps 745 mmHg 82%
16:00 +1°C° 0 mm 5 mps 744 mmHg 80%
17:00 0°C° 0 mm 4 mps 745 mmHg 80%
18:00 0°C° 0 mm 4 mps 745 mmHg 79%
19:00 0°C° 0 mm 4 mps 745 mmHg 79%
20:00 0°C° 0 mm 4 mps 744 mmHg 78%
21:00 -1°C° 0 mm 4 mps 744 mmHg 78%
22:00 -1°C° 0 mm 4 mps 744 mmHg 77%
23:00 -1°C° 0 mm 4 mps 744 mmHg 77%

21 January, Thursday

Time Temperature Precipitation Wind Pressure Humidity
00:00 -1°C° 0 mm 4 mps 744 mmHg 78%
01:00 -1°C° 0 mm 4 mps 744 mmHg 79%
02:00 -1°C° 0 mm 5 mps 743 mmHg 81%
03:00 0°C° 0 mm 5 mps 743 mmHg 83%
04:00 -1°C° 0 mm 6 mps 742 mmHg 85%
05:00 -1°C° 0 mm 6 mps 742 mmHg 86%
06:00 -1°C° 0 mm 6 mps 742 mmHg 87%
07:00 -1°C° 0 mm 6 mps 741 mmHg 87%
08:00 0°C° 0 mm 5 mps 741 mmHg 89%
09:00 0°C° 0 mm 4 mps 741 mmHg 91%
10:00 +1°C° 0 mm 3 mps 740 mmHg 93%
11:00 +1°C° 0 mm 3 mps 740 mmHg 95%
12:00 +1°C° 0 mm 3 mps 739 mmHg 97%
13:00 +2°C° 0 mm 3 mps 739 mmHg 99%
14:00 +1°C° 0 mm 3 mps 739 mmHg 98%
15:00 0°C° 0 mm 4 mps 739 mmHg 97%
16:00 0°C° 0 mm 4 mps 739 mmHg 96%
17:00 0°C° 0 mm 4 mps 740 mmHg 94%
18:00 -1°C° 0 mm 4 mps 740 mmHg 91%
19:00 0°C° 0 mm 3 mps 741 mmHg 89%
20:00 -1°C° 0 mm 4 mps 741 mmHg 89%
21:00 -1°C° 0 mm 4 mps 742 mmHg 88%
22:00 -1°C° 0 mm 4 mps 742 mmHg 87%
23:00 -1°C° 0 mm 4 mps 742 mmHg 86%
Show more